Regional Weather Roundup
Issued by NWS Kansas City/Pleasant Hill, MO

Home | Current Version | Previous Version | Text Only | Print | Product List | Glossary On
Versions: 1 2 3 4 5 6 7 8 9 10 11 12 13 14 15 16 17 18 19 20 21 22 23 24 25 26 27
000
ASUS43 KEAX 201410
RWREAX

WEATHER ROUNDUP FOR EASTERN KANSAS AND NORTHWEST MISSOURI
NATIONAL WEATHER SERVICE KANSAS CITY/PLEASANT HILL MO
900 AM CDT THU JUL 20 2017

KSZ040-057-103>105-MOZ028-029-037-043-201500-
...KANSAS CITY METROPOLITAN AREA...

CITY           SKY/WX    TMP DP  RH WIND       PRES   REMARKS
K.C. INTL      MOSUNNY   83  74  74 SW14      30.04R
K.C. DOWNTOWN  SUNNY     86  73  65 SW14      30.02S HX  93
LEES SUMMIT    SUNNY     85  73  67 SW12      30.06R HX  91
OLATHE - IXD   SUNNY     83  73  72 S12       30.06R
OLATHE - OJC   SUNNY     81  74  79 SW8       30.06R
LAWRENCE       SUNNY     85  74  69 SW8       30.04R HX  92

$$

MOZ001>008-011>017-020>025-030>033-038>040-044>046-053-054-201500-
...NORTHERN AND CENTRAL MISSOURI...

CITY           SKY/WX    TMP DP  RH WIND       PRES   REMARKS
ST. JOSEPH     SUNNY     82  76  81 S7        30.01S
MOSBY          SUNNY     82  72  69 S5        30.03S
WARRENSBURG    SUNNY     84  72  65 S10G18    30.06S
WHITEMAN AFB   MOSUNNY   85  76  75 SW10      30.06S HX  94
CLINTON        SUNNY     82  73  74 SW8       30.09R
SEDALIA        SUNNY     84  75  74 SW13      30.08S HX  92
WARSAW         NOT AVBL
CHILLICOTHE      N/A     81  75  82 S7        30.03S
KIRKSVILLE     CLOUDY    82  73  74 SW7       30.05S

$$

MOZ041-047>049-056>058-063>065-088>090-097-201500-
...EASTERN AND SOUTHERN MISSOURI...

CITY           SKY/WX    TMP DP  RH WIND       PRES   REMARKS
ST. LOUIS INTL CLOUDY    87  70  56 W14       30.09S HX  92
SPIRIT OF STL  CLOUDY    84  73  69 W9        30.08R HX  90
COLUMBIA       SUNNY     85  73  67 SW9       30.09S HX  91
JEFFERSON CITY SUNNY     84  73  69 SW6       30.08S HX  90
ROLLA          SUNNY     81  72  74 SW9       30.12S
OSAGE BEACH    SUNNY     84  73  69 SW7       30.11S HX  90
SPRINGFIELD    SUNNY     84  74  71 SW12      30.14R HX  91
BRANSON        SUNNY     82  73  74 SW7       30.16R
JOPLIN         SUNNY     86  74  67 SW17      30.11S HX  94
WEST PLAINS    SUNNY     82  72  71 VRB5      30.16R

$$

IAZ060-094-KSZ022-034>040-054-083-096-NEZ052-066-093-201500-
...KANSAS...SOUTHEAST NEBRASKA AND IOWA...

CITY           SKY/WX    TMP DP  RH WIND       PRES   REMARKS
TOPEKA         SUNNY     85  73  67 SW7       30.02S HX  91
MANHATTAN      SUNNY     88  71  57 SW14      30.01S HX  94
EMPORIA        SUNNY     84  71  65 S15G23    30.04S
CHANUTE        SUNNY     85  72  65 MISG      30.08S HX  91
WICHITA        MOSUNNY   85  71  63 S16       30.05F HX  90
OMAHA          PTSUNNY   86  70  58 S9        29.95F HX  90
LINCOLN        CLOUDY    83  70  64 N3        29.99R
FALLS CITY     SUNNY     84  74  71 E3        29.99S HX  91
LAMONI         MOSUNNY   81  73  76 SW12      30.01F
DES MOINES     MOSUNNY   86  71  60 W12       29.96R HX  91

$$





USA.gov is the U.S. government's official web portal to all federal, state and local government web resources and services.